Content
SEND FEEDBACK

Daily
Averages
Monthly
Summary
United States of America

NEW YORK - CENTRAL PARK, NEW YORK


Home > North America > United States > New York
Elevation: 14 feet     Latitude: 40 47N     Longitude: 073 58W

WEATHER
 
SELECT A DAY
Number of Records: 150,546;   Date Range: 11/1/95 - 9/30/14
 
SHARE

PRINT THIS DATA

[ ← Previous Day ]
WEATHER ALMANAC - AUGUST 25, 2013
[ Next Day → ]
[ °C ]   °F
Weather ElementAverageHighLow
Temperature74.1 °F82.9 °F (1:51 pm)64 °F (5:51 am)
Dewpoint52.9 °F57 °F (2:51 am)48.9 °F (12:51 pm)
Humidity49.6 %78 % (5:51 am)31 % (3:51 pm)
Barometer30.32 in30.40 in (7:51 am)30.24 in (11:51 pm)
Wind Speed4.2 mph8.1 mph (4:51 pm)
Weather ElementAverage
Visibility10 mi
Wind DirectionESE (101.4 °)

Weather ElementTotal
Precipitation---
Cooling Degree Days8.5 (Base 65)
Growing Degree Days23.5 (Base 50)
Averaged from 22 records on August 25, 2013
WEATHER CONDITIONS BREAKOUT
WIND DIRECTION BREAKOUT
WEATHER BY HOUR - AUGUST 25, 2013
[ °C ]   °F
Local TimeTemperatureDewpointHumidityBarometerVisibilityWind DirectionWind SpeedGust SpeedPrecipitationEventsConditions
1:51 AM66.9 °F55.9 °F68 %30.33 in10.0 miCalmClear
2:51 AM66.9 °F57.0 °F70 %30.33 in10.0 miWest (280°)3.5 mphClear
3:51 AM66.0 °F57.0 °F73 %30.34 in10.0 miCalmClear
5:51 AM64.0 °F57.0 °F78 %30.37 in10.0 miCalmClear
6:51 AM66.0 °F55.9 °F70 %30.38 in10.0 miWNW (290°)3.5 mphClear
7:51 AM66.9 °F54.0 °F63 %30.40 in10.0 miWNW (290°)6.9 mphClear
8:51 AM69.1 °F54.0 °F58 %30.40 in10.0 miWest (280°)4.6 mphClear
9:51 AM72.0 °F55.0 °F55 %30.40 in10.0 miWNW (290°)5.8 mphClear
10:51 AM75.9 °F54.0 °F46 %30.38 in10.0 miWest (260°)5.8 mphClear
11:51 AM79.0 °F53.1 °F40 %30.36 in10.0 miCalmClear
12:51 PM81.0 °F48.9 °F33 %30.34 in10.0 miWSW (250°)5.8 mphClear
1:51 PM82.9 °F50.0 °F32 %30.32 in10.0 miCalmClear
2:51 PM82.9 °F51.1 °F33 %30.31 in10.0 miNorthClear
3:51 PM82.9 °F48.9 °F31 %30.30 in10.0 miVariable5.8 mphClear
4:51 PM82.0 °F48.9 °F31 %30.28 in10.0 miWNW (290°)8.1 mphClear
5:51 PM80.1 °F50.0 °F35 %30.27 in10.0 miVariable5.8 mphClear
6:51 PM78.1 °F51.1 °F39 %30.25 in10.0 miNorthClear
7:51 PM77.0 °F51.1 °F40 %30.25 in10.0 miVariable5.8 mphClear
8:51 PM75.0 °F51.1 °F43 %30.25 in10.0 miVariable5.8 mphClear
9:51 PM72.0 °F53.1 °F51 %30.26 in10.0 miVariable3.5 mphClear
10:51 PM72.0 °F53.1 °F51 %30.25 in10.0 miVariable5.8 mphClear
11:51 PM72.0 °F53.1 °F51 %30.24 in10.0 miVariable6.9 mphClear
Hourly data recorded from KNYC, located miles away from New York - Central Park, New York







STORIES FROM OUR PARTNERS